Location: *
(58.4167°N, 22.5000°E)
Time: 20:37:04
(UTC+00:00)

Spot 2 Rocket - Pass Details

Date: 22 September 2019
Orbit: 757 x 772 km, 98.6° (Epoch: 13 October)

Event Time Altitude Azimuth Distance (km) Brightness Sun altitude
Exits shadow 17:54:26 15° 120° (ESE) 1,940 5.0 -11.6°
Maximum altitude 17:58:05 38° 59° (ENE) 1,145 4.1 -12.0°
Drops below altitude 10° 18:02:45 10° 352° (N) 2,303 6.4 -12.6°
Sets 18:05:10 0° 345° (NNW) 3,233 7.3 -12.9°
